Regional Weather Roundup
Issued by NWS

Home | Current Version | Previous Version | Text Only | Print | Product List | Glossary Off
Versions: 1 2 3 4 5 6 7 8 9 10 11 12 13 14 15 16 17 18 19 20 21 22 23 24 25 26 27 28 29 30 31 32 33 34 35 36 37 38 39 40 41 42 43 44 45 46 47 48 49 50

000
ASUS43 KLOT 280308
RWRIL

ILLINOIS REGIONAL WEATHER ROUNDUP
NATIONAL WEATHER SERVICE CHICAGO/ROMEOVILLE IL
1000 PM CDT MON APR 27 2015

NOTE: "FAIR" INDICATES FEW OR NO CLOUDS BELOW 12,000 FEET WITH NO
SIGNIFICANT WEATHER AND/OR OBSTRUCTIONS TO VISIBILITY.

* THESE STATIONS ARE NOT UNDER NWS QUALITY CONTROL. THEY ALSO MAY NOT
  REPORT WEATHER SUCH AS PRECIPITATION OR FOG.

ILZ001-002-007-009-015-016-024-280400-
NORTHWEST ILLINOIS

CITY           SKY/WX    TMP DP  RH WIND       PRES   REMARKS
MOLINE         CLEAR     49  39  68 CALM      30.10R
STERLING*      CLEAR     50  37  62 SE5       30.11R
SAVANNA*       CLEAR     51  36  56 E7        30.10R
$$

ILZ003-004-008-010-011-017-018-280400-
NORTH CENTRAL ILLINOIS

CITY           SKY/WX    TMP DP  RH WIND       PRES   REMARKS
ROCKFORD       CLEAR     49  36  61 SE7       30.14R
FREEPORT*      CLEAR     47  33  59 SE6       30.12R
ROCHELLE*      CLEAR     45  37  71 SE6       30.12R
DE KALB*       CLEAR     41  34  74 SE6       30.13R
PERU*          PTCLDY    50  36  58 SE6       30.12S
$$

ILZ005-006-012>014-019>023-280400-
NORTHEAST ILLINOIS

CITY           SKY/WX    TMP DP  RH WIND       PRES   REMARKS
CHICAGO-OHARE  PTCLDY    43  32  65 NE6       30.13R
CHICAGO-MIDWAY CLEAR     46  33  60 NE6       30.13R
AURORA         CLEAR     44  33  65 E5        30.12R
LANSING*       CLEAR     41  33  72 CALM      30.13S
JOLIET*        CLEAR     46  35  65 NE5       30.11F
WAUKEGAN       CLEAR     38  32  79 CALM      30.13R
DUPAGE AIRPORT CLEAR     42  32  67 NE5       30.12R
KANKAKEE*      CLEAR     41  35  77 NE6       30.12S
WHEELING       CLEAR     42  32  67 CALM      30.15R
MORRIS*        CLEAR     44  35  69 CALM      30.09R
ROMEOVILLE*    CLEAR     45  32  62 NE9       30.12S
NORTHERLY ISL    N/A     41  34  76 MISG        N/A
$$

LMZ740>746-280400-
SOUTHERN LAKE MICHIGAN

STATION/POSITION SKY/WX   TEMP    WIND        PRES    VSBY  WAVE
                          AIR SEA DIR/SP/G                  HT/PER
                          (F)     (DEG/KT/KT) (MB)    (MI)  (FT/S)
HARRISON CRIB              41     350/  6/  8   N/A
BURNHAM HARBOR             42     350/  5/  9   N/A
CALUMET HARBOR             42     360/  4/  5   N/A
BURNS HARBOR               43     350/  4/  5 1020.3R
MICHIGAN CITY              43      50/  5/  6   N/A
MICHIGAN CITY 6N           41 45  300/  8/ 10   N/A           3/ 5
$$

ILZ025>027-034>036-040-047-049-050-058-095>099-280400-
WEST-CENTRAL ILLINOIS

CITY           SKY/WX    TMP DP  RH WIND       PRES   REMARKS
QUINCY         CLEAR     55  35  47 E5        30.10R
GALESBURG*     CLEAR     47  35  65 N5        30.11R
MACOMB*        CLEAR     50  38  65 N5        30.12S
JACKSONVILLE*  CLEAR     50  37  60 CALM      30.10R
PITTSFIELD*    CLEAR     56  36  47 CALM      30.11R
$$

ILZ028>032-037-038-041>044-048-051>054-059>061-280400-
CENTRAL ILLINOIS

CITY           SKY/WX    TMP DP  RH WIND       PRES   REMARKS
PONTIAC        CLEAR     43  37  78 SE7       30.12F
BLOOMINGTON    CLEAR     44  37  76 E7        30.13R
DECATUR        CLEAR     43  36  76 NE9       30.11R
PEORIA         CLEAR     54  38  54 E12       30.12R
LACON*         CLEAR     48  37  64 E6        30.11S
LINCOLN*       CLEAR     51  39  64 E8        30.11R
SPRINGFIELD    CLEAR     51  39  63 CALM      30.10R
TAYLORVILLE    CLEAR     50  36  57 E8        30.10R
$$

ILZ033-039-045-046-055>057-062-063-280400-
EAST-CENTRAL ILLINOIS

CITY           SKY/WX    TMP DP  RH WIND       PRES   REMARKS
CHAMPAIGN      CLEAR     47  35  63 NE8       30.11R
DANVILLE*      CLEAR     42  35  77 N9        30.08R
RANTOUL*       CLEAR     47  36  65 N5        30.11S
MATTOON        CLEAR     47  36  65 NE8       30.10R
PARIS*         CLEAR     44  37  76 CALM      30.10S
$$

ILZ079-100>102-280400-
SOUTHWEST ILLINOIS

CITY           SKY/WX    TMP DP  RH WIND       PRES   REMARKS
ALTON          CLEAR     55  34  44 CALM      30.07S
BELLEVILLE     CLEAR     53  41  64 NE6       30.07R
CAHOKIA*       CLEAR     54  40  59 CALM      30.08R
SPARTA*        PTCLDY    51  40  66 NE5       30.08R
$$

ILZ064>066-069>071-074>076-080>082-084>086-088>090-092>094-280400-
SOUTH-CENTRAL ILLINOIS

CITY           SKY/WX    TMP DP  RH WIND       PRES   REMARKS
CARBONDALE     PTCLDY    54  39  57 NE7       30.06R
CAIRO*         MOCLDY    56  42  59 N5        30.05R
EFFINGHAM*     CLEAR     49  34  55 CALM      30.10S
MARION         MOCLDY    55  41  58 NE10G17   30.07R
MT. VERNON     CLEAR     52  36  54 NE8       30.09R
CENTRALIA*     CLEAR     51  37  59 NE7       30.08R
SALEM*         CLEAR     54  38  54 NE7       30.08S
METROPOLIS*    MOCLDY    53  43  67 CALM      30.04R
$$

ILZ067-068-072-073-078-083-087-091-280400-
SOUTHEAST ILLINOIS

CITY           SKY/WX    TMP DP  RH WIND       PRES   REMARKS
LAWRENCEVILLE  CLEAR     50  37  61 N13       30.08S
FLORA*         CLEAR     50  37  62 N8        30.08F
FAIRFIELD*     CLEAR     51  38  60 N6        30.07R
HARRISBURG*    PTCLDY    53  40  62 N7        30.07R
ROBINSON*      CLEAR     48  37  64 N7        30.10R
CARMI*         CLEAR     52  36  55 N8        30.06R
$$

ABBREVIATIONS USED IN REMARKS
   TC - TEMPERATURE IN CELSIUS
  WCI - WIND CHILL INDEX
   HX - HEAT INDEX
  VSB - VISIBILITY
$$




USA.gov is the U.S. government's official web portal to all federal, state and local government web resources and services.